Weather Roundup
Issued by NWS Springfield, MO

Home | Current Version | Previous Version | Text Only | Print | Product List | Glossary On
Versions: 1 2 3 4 5 6 7 8 9 10 11 12 13 14 15 16 17 18 19 20 21 22 23 24 25 26 27 28 29 30 31 32 33 34 35 36 37 38 39 40 41 42 43 44 45 46 47 48 49 50
000
NZUS99 KSGF 221407
HRRSGF

HOURLY WEATHER
NATIONAL WEATHER SERVICE SPRINGFIELD MO
800 AM CST WED FEB 22 2017

......SGF CWA......

CITY           SKY/WX    TMP DP  RH WIND       PRES   REMARKS
SPRINGFIELD    CLOUDY    55  54  96 S9        29.87S FOG
JOPLIN         FOG       52  52 100 S10       29.87R VSB<1/4
WEST PLAINS    CLOUDY    56  55  97 CALM      29.91F
ROLLA          FOG       52  52 100 S9        29.85F VSB<1/4
OSAGE BEACH    FOG       53  53 100 S7        29.88R VSB 1/4
BRANSON        CLOUDY    54  54 100 CALM      29.91R FOG

......SURROUNDING SGF CWA......

CITY           SKY/WX    TMP DP  RH WIND       PRES   REMARKS
CHANUTE        FAIR      47  42  83 S8        29.84S
PARSONS        FAIR      45  44  97 S3        29.86S
COFFEYVILLE    FAIR      46  46 100 CALM      29.86S FOG
EMPORIA        FAIR      50  37  61 S14       29.77F
GROVE OK       FOG       50  50 100 CALM      29.89S VSB 1/4
ROGERS AR      CLOUDY    55  54  94 S6        29.90R FOG
SILOAM SPRINGS CLOUDY    54  52  94 CALM      29.90R VSB<1/4
HARRISON AR    CLOUDY    55  54  96 S5        29.90S
NEAR YELLVILLE CLOUDY    55  52  88 CALM      29.87F

......KANSAS AND MISSOURI......

CITY           SKY/WX    TMP DP  RH WIND       PRES   REMARKS
KANSAS CTY INT PTSUNNY   56  41  57 S17       29.75F
DOWNTOWN KC    FAIR      54  42  64 S8        29.77F
COLUMBIA       FOG       53  53 100 S9        29.85S VSB<1/4
SEDALIA        FOG       53  53 100 S13       29.84S VSB 1/2
ST JOSEPH      FAIR      49  38  65 S6        29.74F
ST LOUIS       FOG       54  53  97 SW8       29.86F VSB 1/4
SPIRIT OF STL  FOG       53  53 100 SW3       29.86F VSB 3/4
KIRKSVILLE     FAIR      52  51  97 S8        29.80S
WICHITA        FAIR      45  38  76 S10       29.82R
TOPEKA         FAIR      52  36  54 S7        29.75F
OLATHE         FAIR      48  42  80 S8        29.79F

......TENNESSEE......

CITY           SKY/WX    TMP DP  RH WIND       PRES   REMARKS
MEMPHIS        PTSUNNY   59  58  96 E10       29.88S
NASHVILLE      CLOUDY    58  55  90 N6        29.93R

......ARKANSAS.......

CITY           SKY/WX    TMP DP  RH WIND       PRES   REMARKS
FAYETTEVILLE   FOG       52  52 100 S5        29.90R VSB 1/4
FT SMITH       FOG       50  49  96 CALM      29.89R VSB<1/4
LITTLE ROCK    CLOUDY    56  56 100 N6        29.90S FOG

......OKLAHOMA.......

CITY           SKY/WX    TMP DP  RH WIND       PRES   REMARKS
TULSA          FAIR      48  44  86 SE5       29.85F
PONCA CITY     FAIR      49  38  65 S5        29.83F
MCALESTER      FAIR      45  43  93 SW3       29.89F
OKLAHOMA CITY  FAIR      46  39  76 SE8       29.86R

......IOWA............

CITY           SKY/WX    TMP DP  RH WIND       PRES   REMARKS
DES MOINES     FAIR      50  33  52 S9        29.68F
QUAD CITIES    CLOUDY    54  51  90 SW10      29.76F FOG

......ILLINOIS........

CITY           SKY/WX    TMP DP  RH WIND       PRES   REMARKS
QUINCY         FOG       54  54 100 SW14      29.82S VSB<1/4
CHICAGO        FOG       53  52  96 SW9       29.78F VSB 3/4




USA.gov is the U.S. government's official web portal to all federal, state and local government web resources and services.